Location: Arpaise
(41.0333°N, 14.7333°E)
Time: 01:09:39
(UTC+00:00)

Terra - Pass Details

Date: 05 July 2020
Orbit: 701 x 703 km, 98.2° (Epoch: 11 August)

Event Time Altitude Azimuth Distance (km) Brightness Sun altitude
Exits shadow 22:10:34 17° 250° (WSW) 1,730 3.8 -25.0°
Maximum altitude 22:11:38 18° 267° (W) 1,673 3.8 -25.1°
Drops below altitude 10° 22:14:55 10° 311° (NW) 2,177 5.0 -25.2°
Sets 22:17:51 0° 330° (NNW) 3,100 6.3 -25.3°
